VA3XLC Weather Reports


time (UTC)temp
C
wind
direction
speed
KPH
gust
KPH
rain 1hr
cm
rain 24hr
cm
rain mn
cm
humidity
%
barometer
mb
20260906030629 17 96 1.6 4.8 0.00 0.00 0.00 89 983.5
20260906030129 17 41 1.6 4.8 0.00 0.00 0.00 88 983.5
20260906025629 17 44 3.2 6.4 0.00 0.00 0.00 89 983.5
20260906025128 17 340 3.2 6.4 0.00 0.00 0.00 89 983.4
20260906024628 16 35 1.6 4.8 0.00 0.00 0.00 90 983.4
20260906024128 16 43 1.6 6.4 0.00 0.00 0.00 90 983.3
20260906023628 16 347 3.2 6.4 0.00 0.00 0.00 91 983.3
20260906022606 16 327 1.6 3.2 0.00 0.00 0.00 93 983.3
20260906022106 16 0 0.0 0.0 0.00 0.00 0.00 93 983.2
20260906021605 16 349 1.6 3.2 0.00 0.00 0.00 93 983.1
20260906021105 16 0 0.0 0.0 0.00 0.00 0.00 93 983.0
20260906020044 17 338 3.2 4.8 0.00 0.00 0.00 92 983.0
20260906015543 17 11 0.0 1.6 0.00 0.00 0.00 92 982.9
20260906015042 17 3 1.6 3.2 0.00 0.00 0.00 92 982.9
20260906014542 17 0 0.0 0.0 0.00 0.00 0.00 91 982.9
20260906014042 17 305 1.6 3.2 0.00 0.00 0.00 91 982.7
20260906013542 17 348 3.2 4.8 0.00 0.00 0.00 90 982.7
20260906013041 17 342 1.6 4.8 0.00 0.00 0.00 89 982.6
20260906012541 17 318 1.6 3.2 0.00 0.00 0.00 89 982.6
20260906012041 17 347 1.6 3.2 0.00 0.00 0.00 88 982.6
20260906011540 17 0 0.0 0.0 0.00 0.00 0.00 87 982.6
20260906011040 17 7 1.6 1.6 0.00 0.00 0.00 86 982.5
20260906010540 17 28 1.6 3.2 0.00 0.00 0.00 85 982.5
20260906010039 18 356 3.2 4.8 0.00 0.00 0.00 83 982.4
20260906005538 18 330 3.2 4.8 0.00 0.00 0.00 83 982.4
20260906005038 18 346 4.8 6.4 0.00 0.00 0.00 81 982.5
20260906003455 18 350 3.2 4.8 0.00 0.00 0.00 78 982.5
20260906002955 18 1 3.2 8.0 0.00 0.00 0.00 77 982.4
20260906002455 19 8 3.2 6.4 0.00 0.00 0.00 75 982.4
20260906001955 19 33 1.6 4.8 0.00 0.00 0.00 75 982.4
20260906001454 19 348 1.6 4.8 0.00 0.00 0.00 74 982.3
20260906000954 19 336 3.2 6.4 0.00 0.00 0.00 72 982.2
20260906000455 20 322 1.6 4.8 0.00 0.00 0.00 72 982.2
20260905235431 20 345 1.6 3.2 0.00 0.00 0.00 69 982.2
20260905234931 20 338 4.8 8.0 0.00 0.00 0.00 68 982.2
20260905234430 20 347 6.4 11.3 0.00 0.00 0.00 67 982.2
20260905232847 21 339 3.2 6.4 0.00 0.00 0.00 64 982.2
20260905232346 21 17 3.2 8.0 0.00 0.00 0.00 63 982.3
20260905231845 22 344 3.2 6.4 0.00 0.00 0.00 62 982.3
20260905231345 22 332 8.0 12.9 0.00 0.00 0.00 61 982.2
20260905230844 22 342 8.0 14.5 0.00 0.00 0.00 61 982.0
20260905230344 22 352 8.0 12.9 0.00 0.00 0.00 61 982.1
20260905225844 23 340 9.7 14.5 0.00 0.00 0.00 60 982.0
20260905225343 23 341 3.2 8.0 0.00 0.00 0.00 60 981.9
20260905224321 24 20 1.6 4.8 0.00 0.00 0.00 57 981.9
20260905223821 24 37 3.2 8.0 0.00 0.00 0.00 55 981.9
20260905223320 24 71 3.2 9.7 0.00 0.00 0.00 54 981.9
20260905222820 24 50 4.8 8.0 0.00 0.00 0.00 54 981.9
20260905222320 24 358 3.2 8.0 0.00 0.00 0.00 52 981.9
20260905221820 25 0 3.2 4.8 0.00 0.00 0.00 53 981.8
20260905221319 25 49 4.8 9.7 0.00 0.00 0.00 52 981.8
20260905220819 25 98 4.8 9.7 0.00 0.00 0.00 53 981.8
20260905220319 25 27 4.8 6.4 0.00 0.00 0.00 52 981.8
20260905215819 25 53 3.2 6.4 0.00 0.00 0.00 53 981.8
20260905215319 24 58 3.2 6.4 0.00 0.00 0.00 54 981.9
20260905214818 23 29 1.6 3.2 0.00 0.00 0.00 57 981.9
20260905214317 24 102 3.2 6.4 0.00 0.00 0.00 57 981.9
20260905213817 24 320 3.2 6.4 0.00 0.00 0.00 55 981.8
20260905213316 25 24 4.8 8.0 0.00 0.00 0.00 52 981.8
20260905212816 25 357 4.8 9.7 0.00 0.00 0.00 50 981.8
20260905212316 24 347 4.8 6.4 0.00 0.00 0.00 54 981.7
20260905211816 24 321 3.2 8.0 0.00 0.00 0.00 55 981.7
20260905211315 24 331 4.8 9.7 0.00 0.00 0.00 53 981.7
20260905210815 24 6 3.2 6.4 0.00 0.00 0.00 54 981.6
20260905210315 25 5 1.6 4.8 0.00 0.00 0.00 53 981.6
20260905205815 25 353 3.2 4.8 0.00 0.00 0.00 52 981.6
20260905204753 25 14 4.8 6.4 0.00 0.00 0.00 52 981.6
20260905203732 25 54 4.8 11.3 0.00 0.00 0.00 51 981.7
20260905203232 25 62 8.0 14.5 0.00 0.00 0.00 51 981.7
20260905202732 25 85 3.2 6.4 0.00 0.00 0.00 51 981.7
20260905202231 25 45 6.4 11.3 0.00 0.00 0.00 51 981.7
20260905201730 25 15 6.4 8.0 0.00 0.00 0.00 49 981.8
20260905201230 25 31 4.8 8.0 0.00 0.00 0.00 51 981.7
20260905200208 25 77 3.2 4.8 0.00 0.00 0.00 52 981.8
20260905195708 25 23 4.8 8.0 0.00 0.00 0.00 50 981.9
20260905195207 24 357 4.8 8.0 0.00 0.00 0.00 51 981.9
20260905194707 24 29 4.8 9.7 0.00 0.00 0.00 53 981.9
20260905194207 24 62 6.4 9.7 0.00 0.00 0.00 50 981.8
20260905193707 24 74 6.4 12.9 0.00 0.00 0.00 52 981.8
20260905193206 24 32 6.4 8.0 0.00 0.00 0.00 53 981.9
20260905192145 24 160 3.2 8.0 0.00 0.00 0.00 56 982.1
20260905191644 25 39 4.8 14.5 0.00 0.00 0.00 52 982.0
20260905191144 25 92 6.4 11.3 0.00 0.00 0.00 52 982.0
20260905190644 24 8 3.2 4.8 0.00 0.00 0.00 54 982.1
20260905185101 23 49 4.8 8.0 0.00 0.00 0.00 53 982.2
20260905182956 24 109 4.8 8.0 0.00 0.00 0.00 54 982.4
20260905182455 24 333 9.7 11.3 0.00 0.00 0.00 54 982.4
20260905181955 24 119 4.8 6.4 0.00 0.00 0.00 55 982.4
20260905181455 24 73 3.2 6.4 0.00 0.00 0.00 55 982.5
20260905180955 24 91 1.6 3.2 0.00 0.00 0.00 56 982.5
20260905180455 24 82 6.4 12.9 0.00 0.00 0.00 57 982.4
20260905175954 23 312 4.8 8.0 0.00 0.00 0.00 55 982.5
20260905175453 23 336 8.0 11.3 0.00 0.00 0.00 57 982.5
20260905174953 23 116 3.2 4.8 0.00 0.00 0.00 58 982.5
20260905174453 23 133 6.4 11.3 0.00 0.00 0.00 59 982.5
20260905173952 23 99 4.8 11.3 0.00 0.00 0.00 57 982.6
20260905172931 23 127 8.0 12.9 0.00 0.00 0.00 59 982.7
20260905172431 23 69 3.2 4.8 0.00 0.00 0.00 59 982.7
20260905171409 23 147 3.2 8.0 0.00 0.00 0.00 58 982.6
20260905170909 23 337 4.8 6.4 0.00 0.00 0.00 60 982.7
20260905170409 23 239 3.2 4.8 0.00 0.00 0.00 61 982.7
20260905165909 23 16 6.4 8.0 0.00 0.00 0.00 61 982.7
20260905165409 23 56 6.4 9.7 0.00 0.00 0.00 62 982.7
20260905164908 23 233 3.2 4.8 0.00 0.00 0.00 62 982.7
20260905163846 23 23 4.8 6.4 0.00 0.00 0.00 61 982.8
20260905163345 23 120 6.4 11.3 0.00 0.00 0.00 60 982.9
20260905162845 23 96 4.8 6.4 0.00 0.00 0.00 60 982.9
20260905162345 23 54 3.2 8.0 0.00 0.00 0.00 61 982.9
20260905161323 22 170 3.2 4.8 0.00 0.00 0.00 63 982.9
20260905160822 22 147 4.8 8.0 0.00 0.00 0.00 62 982.9
20260905160322 23 96 4.8 8.0 0.00 0.00 0.00 59 982.9
20260905155301 22 69 4.8 8.0 0.00 0.00 0.00 60 983.0
20260905154800 22 37 8.0 11.3 0.00 0.00 0.00 60 983.0
20260905154300 22 61 8.0 9.7 0.00 0.00 0.00 63 983.1
20260905153759 22 152 3.2 6.4 0.00 0.00 0.00 65 983.1
20260905153259 22 88 6.4 12.9 0.00 0.00 0.00 66 983.0
20260905152759 22 116 3.2 8.0 0.00 0.00 0.00 65 983.1
20260905152258 22 156 6.4 9.7 0.00 0.00 0.00 65 983.0
20260905151758 22 128 6.4 11.3 0.00 0.00 0.00 63 983.0
20260905150736 22 80 4.8 8.0 0.00 0.00 0.00 67 983.0
20260905150235 22 152 4.8 9.7 0.00 0.00 0.00 68 983.0
20260905145214 22 155 4.8 9.7 0.00 0.00 0.00 67 983.1
20260905144713 21 133 3.2 8.0 0.00 0.00 0.00 68 983.1
20260905144212 21 109 6.4 11.3 0.00 0.00 0.00 68 983.0
20260905143712 21 117 6.4 8.0 0.00 0.00 0.00 69 983.0
20260905143212 21 147 4.8 9.7 0.00 0.00 0.00 70 983.0
20260905142711 21 100 4.8 8.0 0.00 0.00 0.00 70 983.1
20260905142210 21 108 4.8 8.0 0.00 0.00 0.00 69 983.0
20260905141710 21 98 6.4 9.7 0.00 0.00 0.00 69 983.0
20260905141210 21 58 4.8 8.0 0.00 0.00 0.00 72 983.0
20260905140710 21 139 8.0 12.9 0.00 0.00 0.00 71 983.1
20260905140209 21 87 4.8 6.4 0.00 0.00 0.00 72 983.1
20260905135709 20 153 3.2 4.8 0.00 0.00 0.00 75 983.1
20260905134648 20 73 6.4 11.3 0.00 0.00 0.00 78 983.1
20260905134147 20 117 8.0 12.9 0.00 0.00 0.00 79 983.0
20260905133647 20 106 4.8 9.7 0.00 0.00 0.00 80 983.1
20260905132626 19 121 6.4 12.9 0.00 0.00 0.00 81 983.2
20260905132125 19 88 8.0 11.3 0.00 0.00 0.00 83 983.2
20260905131625 19 109 4.8 8.0 0.00 0.00 0.00 83 983.3
20260905131125 18 77 6.4 11.3 0.00 0.00 0.00 84 983.3
20260905130625 18 91 6.4 9.7 0.00 0.00 0.00 84 983.3
20260905130124 18 66 4.8 8.0 0.00 0.00 0.00 85 983.4
20260905125624 18 139 3.2 6.4 0.00 0.00 0.00 85 983.4
20260905125124 18 109 3.2 6.4 0.00 0.00 0.00 85 983.4
20260905124624 18 109 4.8 6.4 0.00 0.00 0.00 86 983.5
20260905124124 18 134 4.8 6.4 0.00 0.00 0.00 87 983.4
20260905123624 18 117 4.8 6.4 0.00 0.00 0.00 87 983.5
20260905122602 18 145 3.2 4.8 0.00 0.00 0.00 86 983.3
20260905122102 17 102 3.2 6.4 0.00 0.00 0.00 88 983.4
20260905121602 17 127 6.4 8.0 0.00 0.00 0.00 88 983.4
20260905120540 17 92 1.6 3.2 0.00 0.00 0.00 89 983.5
20260905120040 17 101 3.2 6.4 0.00 0.00 0.00 89 983.5
20260905115540 17 64 3.2 4.8 0.00 0.00 0.00 90 983.5
20260905115039 16 132 1.6 1.6 0.00 0.00 0.00 91 983.6
20260905114539 16 65 1.6 4.8 0.00 0.00 0.00 92 983.6
20260905114039 16 141 1.6 3.2 0.00 0.00 0.00 94 983.5
20260905113539 15 0 0.0 0.0 0.00 0.00 0.00 96 983.5
20260905113039 15 54 1.6 3.2 0.00 0.00 0.00 96 983.4
20260905112539 15 0 0.0 0.0 0.00 0.00 0.00 97 983.4
20260905112038 15 0 0.0 0.0 0.00 0.00 0.00 97 983.4
20260905111538 15 0 0.0 0.0 0.00 0.00 0.00 97 983.4
20260905111038 15 217 0.0 1.6 0.00 0.00 0.00 97 983.3
20260905110537 15 0 0.0 0.0 0.00 0.00 0.00 96 983.2
20260905110037 15 0 0.0 0.0 0.00 0.00 0.00 96 983.1
20260905105536 15 0 0.0 0.0 0.00 0.00 0.00 96 983.1
20260905105035 15 0 0.0 0.0 0.00 0.00 0.00 96 983.0
20260905103453 16 0 0.0 0.0 0.00 0.00 0.00 95 982.8
20260905102953 16 0 0.0 0.0 0.00 0.00 0.00 95 982.6
20260905102452 16 94 3.2 4.8 0.00 0.00 0.00 94 982.5
20260905101952 16 166 3.2 4.8 0.00 0.00 0.00 94 982.5
20260905101452 16 137 1.6 1.6 0.00 0.00 0.00 94 982.5
20260905100952 16 87 3.2 6.4 0.00 0.00 0.00 93 982.5
20260905100452 16 75 4.8 9.7 0.00 0.00 0.00 93 982.4
20260905095951 16 149 1.6 3.2 0.00 0.00 0.00 93 982.5
20260905093848 17 75 3.2 6.4 0.00 0.00 0.00 92 982.4
20260905092826 17 74 3.2 4.8 0.00 0.00 0.00 91 982.3
20260905092326 17 82 3.2 6.4 0.00 0.00 0.00 91 982.3
20260905091826 17 49 1.6 3.2 0.00 0.00 0.00 91 982.3
20260905091326 17 130 1.6 3.2 0.00 0.00 0.00 91 982.2
20260905090826 17 82 3.2 4.8 0.00 0.00 0.00 91 982.3
20260905090325 17 89 1.6 6.4 0.00 0.00 0.00 91 982.4
20260905085825 17 75 3.2 6.4 0.00 0.00 0.00 91 982.5
20260905085325 17 76 4.8 6.4 0.00 0.00 0.00 91 982.7
20260905084825 17 69 0.0 1.6 0.00 0.00 0.00 91 982.8
20260905084324 17 101 3.2 4.8 0.00 0.00 0.00 91 982.8
20260905083303 17 76 1.6 4.8 0.00 0.00 0.00 92 982.6
20260905082803 17 67 1.6 3.2 0.00 0.00 0.00 92 982.5
20260905082306 17 110 3.2 4.8 0.00 0.00 0.00 93 982.5
20260905081802 17 48 1.6 4.8 0.00 0.00 0.00 93 982.4
20260905081302 17 116 3.2 4.8 0.00 0.00 0.00 93 982.4
20260905080240 17 143 3.2 6.4 0.00 0.00 0.00 93 982.1
20260905075739 17 112 3.2 4.8 0.00 0.00 0.00 94 982.1
20260905075239 17 115 3.2 4.8 0.00 0.00 0.00 94 982.1
20260905074738 17 106 1.6 3.2 0.00 0.00 0.00 94 982.1
20260905073716 17 96 1.6 3.2 0.00 0.00 0.00 94 982.0
20260905073216 17 111 4.8 6.4 0.00 0.00 0.00 94 982.0
20260905072716 17 110 3.2 4.8 0.00 0.00 0.00 95 982.0
20260905072216 17 55 3.2 4.8 0.00 0.00 0.00 95 981.9
20260905071715 17 69 4.8 8.0 0.00 0.00 0.00 96 981.9
20260905071215 17 0 0.0 0.0 0.00 0.00 0.00 96 982.0
20260905070714 17 56 1.6 3.2 0.00 0.00 0.00 96 982.1
20260905070214 17 0 0.0 0.0 0.00 0.00 0.00 96 982.1
20260905065714 17 0 0.0 0.0 0.00 0.00 0.00 96 982.1
20260905065213 17 0 0.0 0.0 0.00 0.00 0.00 96 982.2
20260905064713 17 0 0.0 0.0 0.00 0.00 0.00 96 982.2
20260905064213 17 58 1.6 1.6 0.00 0.00 0.00 96 982.1
20260905063713 17 100 1.6 3.2 0.00 0.00 0.00 96 982.1
20260905063212 17 102 1.6 3.2 0.00 0.00 0.00 96 982.0
20260905062150 17 56 1.6 3.2 0.00 0.00 0.00 95 982.2
20260905061650 17 0 0.0 0.0 0.00 0.00 0.00 96 982.2
20260905061150 17 135 1.6 3.2 0.00 0.00 0.00 95 982.1
20260905060650 17 103 3.2 4.8 0.00 0.00 0.00 96 982.2
20260905055107 17 132 1.6 3.2 0.00 0.00 0.00 96 982.3
20260905054045 18 55 1.6 3.2 0.00 0.00 0.00 96 982.4
20260905053545 18 0 0.0 0.0 0.00 0.00 0.00 96 982.4
20260905053045 18 0 0.0 0.0 0.00 0.00 0.00 95 982.4
20260905052023 18 132 1.6 3.2 0.00 0.00 0.00 95 982.4
20260905051522 18 82 3.2 4.8 0.00 0.00 0.00 94 982.4
20260905051022 18 69 1.6 3.2 0.00 0.00 0.00 94 982.5
20260905050522 19 87 1.6 4.8 0.00 0.00 0.00 93 982.5
20260905050022 19 105 3.2 3.2 0.00 0.00 0.00 93 982.5
20260905045521 19 91 3.2 4.8 0.00 0.00 0.00 92 982.5
20260905044502 19 91 3.2 4.8 0.00 0.00 0.00 91 982.5
20260905043438 20 108 3.2 6.4 0.00 0.00 0.00 90 982.5
20260905042938 20 81 1.6 3.2 0.00 0.00 0.00 91 982.5
20260905042437 20 0 0.0 0.0 0.00 0.00 0.00 91 982.6
20260905041937 20 88 3.2 4.8 0.00 0.00 0.00 90 982.6
20260905041437 20 39 1.6 3.2 0.00 0.00 0.00 91 982.6
20260905040937 20 0 0.0 0.0 0.00 0.00 0.00 91 982.6
20260905040437 20 0 0.0 0.0 0.00 0.00 0.00 91 982.6
20260905035936 20 0 0.0 0.0 0.00 0.00 0.00 91 982.6
20260905035436 20 36 1.6 3.2 0.00 0.00 0.00 91 982.6
20260905034936 20 124 1.6 1.6 0.00 0.00 0.00 91 982.7
20260905034435 20 38 1.6 6.4 0.00 0.00 0.00 91 982.7
20260905033935 20 0 0.0 0.0 0.00 0.00 0.00 92 982.7
20260905033434 20 64 3.2 4.8 0.00 0.00 0.00 92 982.8
20260905032934 20 359 1.6 3.2 0.00 0.00 0.00 93 982.8
20260905032433 20 0 0.0 0.0 0.00 0.00 0.00 93 982.8
20260905031933 20 0 0.0 0.0 0.00 0.00 0.00 93 982.8
20260905031433 20 0 0.0 0.0 0.00 0.00 0.00 94 982.7